Location: La Oliva
(42.2466°N, 2.9955°E)
Time: 08:19:30
(UTC+00:00)

Aureole 1 Rocket - Pass Details

Date: 22 April 2021
Orbit: 379 x 1372 km, 73.9° (Epoch: 07 May)

Event Time Altitude Azimuth Distance (km) Brightness Sun altitude
Exits shadow 22:17:35 51° 318° (NW) 981 4.2 -31.6°
Drops below altitude 10° 22:21:37 10° 10° (N) 2,091 6.4 -31.9°
Sets 22:23:39 0° 15° (NNE) 2,873 7.2 -32.0°
